Погода в Кавиенге

Папуа-Новая Гвинея     2°41′51″S   151°00′56″E
темп.,
°C
ветер,
м/с
пор.,
м/с
влажн.,
%
обл.,
%
осадки,
мм/ч
давл.,
гПа
погр.,
м
14 апреля, ср
ср1401:00+23вюв1188100 0.0 100849
04:00+22юз119234 0.0 100731
07:00+25зюз018445 0.0 100966
10:00+30ю236222 0.0 10091163
13:00+29ссв217620 0.6 1006797
16:00+28в017536 1.2 1005759
19:00+25в129099 0.2 100870
22:00+25в1287100 0.3 100986
15 апреля, чт
чт1501:00+24вюв128593 0.0 100780
04:00+23вюв11887 0.0 100783
07:00+25в138459 0.0 1008156
10:00+30св34628 0.0 10091336
13:00+30св336026 0.0 10061373
16:00+29св3467100 0.1 10051049
19:00+25св268789 0.2 1008198
22:00+25св2489100 0.7 1009135
16 апреля, пт
пт1601:00+24ссв4898100 4.8 1008436
04:00+23ссв1397100 9.1 1007131
07:00+24св2392100 0.2 1009115
10:00+24всв2494100 0.4 1010269
13:00+26ссв249097 2.6 1007522
16:00+27св2480100 3.8 1006674
19:00+24св3784100 0.2 1009271
22:00+24ссв3788100 0.3 1010321
17 апреля, сб
сб1701:00+24св2694100 1.8 1009233
04:00+24св3794100 3.0 1009283
07:00+24всв379487 0.5 1010307
10:00+26всв4692100 1.9 1011624
13:00+25св369296 1.0 1008260
16:00+24всв2595100 2.7 1008215
19:00+24св2496100 0.8 1009122
22:00+23в1198100 4.4 101054
18 апреля, вс
вс1801:00+23юз1198100 1.4 100859
04:00+23зюз1298100 1.4 100791
07:00+23зюз239664 0.0 1009139
10:00+27зюз2485100 1.8 1009672
13:00+24зюз2595100 4.9 1007246
16:00+25з2592100 9.0 1006260
19:00+23сз2396100 2.2 1008103
22:00+23з2397100 5.8 1009110